Tracking 33845 objects as of 17-Apr-2026
HD Live streaming from Space Station
objects crossing your sky now

DELTA 1 DEB

Track DELTA 1 DEB now!
10-day predictions


NORAD ID: 10843
Int'l Code: 1976-077CP
Perigee: 1,344.1 km
Apogee: 1,527.9 km
Inclination: 101.7 °
Period: 114.4 minutes
Semi major axis: 7807 km
RCS: 0.0189 m2 (small)
Launch date: July 29, 1976
Source: United States (US)
Launch site: AIR FORCE WESTERN TEST RANGE (AFWTR)

Note: This is SATELLITE DEBRIS
Your satellite tracking list
Your tracking list is empty




NASA's NSSDC Master Catalog

Two Line Element Set (TLE):
1 10843U 76077CP  26106.39605097 -.00000013  00000-0  18506-3 0  9995
2 10843 101.7108  77.4984 0117738  49.3808 104.8196 12.58566529281463
Source of the keplerian elements: AFSPC